Regional Weather Roundup
Issued by NWS

Home | Current Version | Previous Version | Graphics & Text | Print | Product List | Glossary On
Versions: 1 2 3 4 5 6 7 8 9 10 11 12 13 14 15 16 17 18 19 20 21 22 23 24 25 26 27 28 29 30 31 32 33 34 35 36 37 38 39 40 41 42 43 44 45 46 47 48 49 50
988
ASUS43 KOAX 100702
RWRNE

WEATHER ROUNDUP FOR NEBRASKA
NATIONAL WEATHER SERVICE OMAHA NE
100 AM CST SAT DEC 10 2016

NOTES: SATELLITE DATA IS BEING USED TO AUGMENT CLOUD COVER ABOVE
       12000 FEET.
       "FAIR" INDICATES FEW OR NO CLOUDS BELOW 12,000 FEET WITH NO
       SIGNIFICANT WEATHER AND/OR OBSTRUCTIONS TO VISIBILITY.

  * THESE STATIONS DO NOT REPORT WEATHER SUCH AS RAIN...SNOW OR FOG.

NEZ001>004-019>022-054>056-100800-
NEBRASKA PANHANDLE

CITY           SKY/WX    TMP DP  RH WIND       PRES   REMARKS
SCOTTSBLUFF    CLOUDY    14   6  70 E17G23    30.09F WCI  -3
ALLIANCE       CLOUDY     9   4  80 SE10      30.13F WCI  -5
CHADRON        CLOUDY     5   1  83 NE8       30.20F WCI  -8
KIMBALL        CLOUDY    20  16  84 SE5       30.06F WCI  14
SIDNEY         CLOUDY    20  14  77 E6        30.12F WCI  12
$$

NEZ057>060-069>072-079>082-100800-
SOUTHWEST NEBRASKA

CITY           SKY/WX    TMP DP  RH WIND       PRES   REMARKS
NORTH PLATTE   CLOUDY    17  11  77 SE12      30.25F WCI   4
IMPERIAL       CLOUDY    18  13  80 SE12      30.18F WCI   5
LEXINGTON      CLOUDY    16  12  82 SE10      30.30F WCI   4
MCCOOK         CLOUDY    15  10  80 E6        30.26F WCI   6
OGALLALA       CLOUDY    19  14  81 E7        30.19F WCI   9
$$

NEZ005>010-023>029-035>040-094-100800-
NORTH CENTRAL NEBRASKA

CITY           SKY/WX    TMP DP  RH WIND       PRES   REMARKS
VALENTINE      CLOUDY     5   1  83 NE9       30.33F WCI  -9
AINSWORTH      FLURRIES   9   7  91 NE8       30.33F WCI  -3
BROKEN BOW     CLOUDY    19  14  81 SE8       30.29F WCI   9
O`NEILL        FLURRIES  10   8  90 NE6       30.40F WCI   1
ORD            CLOUDY    14   9  80 CALM      30.36F
THEDFORD       LGT SNOW  10   8  89 NE6       30.28F WCI   1
$$

NEZ041-046>049-061>064-073>077-083>087-100800-
SOUTH CENTRAL NEBRASKA

CITY           SKY/WX    TMP DP  RH WIND       PRES   REMARKS
GRAND ISLAND   CLOUDY    17  13  84 SE5       30.39F WCI  10
AURORA         PTCLDY    15  10  83 CALM      30.40F
HASTINGS       CLOUDY    18  13  80 SE6       30.39F WCI  10
HEBRON         CLOUDY    13   9  85 CALM      30.43F
HOLDREGE       CLOUDY    16  12  85 SE8       30.32F WCI   5
KEARNEY *      CLOUDY    16  10  79 SE6       30.35F WCI   7
YORK           CLOUDY    18  14  86 CALM      30.42S
$$

NEZ011>018-030>034-042>045-100800-
NORTHEAST NEBRASKA

CITY           SKY/WX    TMP DP  RH WIND       PRES   REMARKS
NORFOLK        CLEAR     13   9  84 CALM      30.42F
ALBION         CLOUDY    13   9  85 CALM      30.40F
BLAIR          CLOUDY    22  15  73 SE5       30.45S WCI  16
FREMONT        CLOUDY    22  14  72 SE3       30.46S
TEKAMAH        CLOUDY    21  14  74 N3        30.48F
WAYNE          FLURRIES  17  13  83 E3        30.45S
$$

NEZ050>053-065>068-078-088>093-100800-
SOUTHEAST NEBRASKA

CITY           SKY/WX    TMP DP  RH WIND       PRES   REMARKS
LINCOLN        CLOUDY    22  15  75 CALM      30.48R
OMAHA EPPLEY   CLOUDY    23  12  62 SE6       30.49F WCI  16
BEATRICE       CLOUDY    23  15  69 CALM      30.44S
FALLS CITY     CLOUDY    25  15  66 SE6       30.48F WCI  18
NEBRASKA CITY  CLOUDY    24  11  58 SE3       30.46F
PLATTSMOUTH    CLOUDY    23  12  64 E3        30.47S
$$

NEZ044-045-051>053-067-100800-
OMAHA AREA

CITY           SKY/WX    TMP DP  RH WIND       PRES   REMARKS
OMAHA EPPLEY   CLOUDY    23  12  62 SE6       30.49F WCI  16
BLAIR          CLOUDY    22  15  73 SE5       30.45S WCI  16
FREMONT        CLOUDY    22  14  72 SE3       30.46S
MILLARD        CLOUDY    25  15  68 CALM      30.48S
OFFUTT AFB     CLOUDY    22  14  70 E5        30.48F WCI  16
PLATTSMOUTH    CLOUDY    23  12  64 E3        30.47S
WAHOO          CLOUDY    22  15  72 SE5       30.47R WCI  16
$$




USA.gov is the U.S. government's official web portal to all federal, state and local government web resources and services.